Location: Bremen
(53.0793°N, 8.8017°E)
Time: 16:51:18
(UTC+01:00)

ISS - Pass Details

Date: 14 November 2025
Orbit: 416 x 420 km, 51.6° (Epoch: 12 December)

Event Time Altitude Azimuth Distance (km) Brightness Sun altitude
Rises 18:54:17 0° 219° (SW) 2,361 0.7 -21.3°
Reaches altitude 10° 18:56:37 10° 205° (SSW) 1,498 -0.6 -21.7°
Enters shadow 18:57:53 18° 188° (S) 1,124 -1.5 -21.9°
